This is the latest recevied weather packets stored in our database for station/object N5XJB. If no packets are shown the sender has not sent any weather packets the latest 10 day(s).
| Time | Temp. | Humidity | Pressure | Rain* | Wind** | Luminosity | Snow |
|---|---|---|---|---|---|---|---|
| 1777933641 | 26.67° C | 64% | 1012.1 hPa | 0 mm | - | 190 W/m² | - |
| 1777933338 | 26.67° C | 63% | 1012.1 hPa | 0 mm | - | 178 W/m² | - |
| 1777933035 | 27.22° C | 62% | 1012.4 hPa | 0 mm | - | 144 W/m² | - |
| 1777932732 | 27.22° C | 60% | 1012.4 hPa | 0 mm | - | 173 W/m² | - |
| 1777932428 | 27.22° C | 59% | 1012.4 hPa | 0 mm | - | 173 W/m² | - |
| 1777932126 | 27.78° C | 59% | 1012.4 hPa | 0 mm | - | 166 W/m² | - |
| 1777931822 | 27.78° C | 59% | 1012.4 hPa | 0 mm | - | 166 W/m² | - |
| 1777931520 | 27.78° C | 58% | 1012.4 hPa | 0 mm | - | 188 W/m² | - |
| 1777931215 | 28.33° C | 56% | 1012.4 hPa | 0 mm | - | 191 W/m² | - |
| 1777930912 | 28.33° C | 56% | 1012.7 hPa | 0 mm | - | 208 W/m² | - |
| 1777930609 | 28.33° C | 56% | 1012.4 hPa | 0 mm | - | 265 W/m² | - |
| 1777930305 | 28.33° C | 56% | 1012.4 hPa | 0 mm | - | 267 W/m² | - |
| 1777930002 | 28.33° C | 56% | 1012.7 hPa | 0 mm | - | 176 W/m² | - |
| 1777929698 | 28.33° C | 55% | 1012.4 hPa | 0 mm | - | 243 W/m² | - |
| 1777929396 | 28.33° C | 56% | 1013.1 hPa | 0 mm | - | 265 W/m² | - |
| 1777929092 | 28.89° C | 54% | 1012.7 hPa | 0 mm | - | 204 W/m² | - |
| 1777928790 | 29.44° C | 53% | 1012.7 hPa | 0 mm | - | 192 W/m² | - |
| 1777928486 | 28.89° C | 50% | 1012.7 hPa | 0 mm | - | 449 W/m² | - |
| 1777928184 | 28.89° C | 51% | 1012.7 hPa | 0 mm | - | 715 W/m² | - |
| 1777927881 | 28.89° C | 53% | 1013.1 hPa | 0 mm | - | 274 W/m² | - |
| 1777927580 | 29.44° C | 51% | 1013.1 hPa | 0 mm | - | 289 W/m² | - |
| 1777927278 | 30° C | 51% | 1013.1 hPa | 0 mm | - | 372 W/m² | - |
| 1777926977 | 29.44° C | 52% | 1013.1 hPa | 0 mm | - | 975 W/m² | - |
| 1777926674 | 28.89° C | 52% | 1013.1 hPa | 0 mm | - | 344 W/m² | - |
| 1777926369 | 28.89° C | 52% | 1013.1 hPa | 0 mm | - | 304 W/m² | - |
* Rain latest hour (hover to see other rain measurements)
** Current wind speed in m/s (hover to see current wind gust speed)